sat.trackr.live / text

‹ back to catalog

STARLINK-33564

NORAD 62286 · 2024-237V

PAYLOAD ACTIVE UNKNOWN

§ Identity

Operator
Country
US
Launch date
2024-12-08
Launch site
AFETR
Launch vehicle
Mass (kg)
RCS (m²)

Purposes: comms

External: N2YO · Heavens-Above · Gunter

§ Orbital elements

Epoch: 2026-05-25T00:24:19.124064Z

Period
94.27 min
Inclination
42.9986°
Eccentricity
0.0000759
Mean motion
15.27589007 rev/d
Perigee alt
482.5 km
Apogee alt
483.5 km
Semi-major
6,861.2 km
B*
6.5594e-4
RAAN
145.4403°
Arg perigee
307.0096°
Mean anomaly
53.0686°
Rev number
8,286

§ Raw data

STARLINK-335641 62286U 24237V   26145.01688801  .00017836  00000+0  65594-3 0  99982 62286  42.9986 145.4403 0000759 307.0096  53.0686 15.27589007 82867

JSON: /api/v1/satellites/62286 · /tle

For live sub-satellite position, see the globe view (requires WebGL).

§ Visibility from observer

Set your observer location to see the next 7 days of passes ≥ 10°. The values pass through the URL so the page stays shareable.

No JS? Fill the form by hand. The geolocation button needs JavaScript.